Year,Month,Day,Hour,Minute,Value (Times are PST for temperature in C)
2017,07,06,00,00,15.70
2017,07,06,00,01,15.60
2017,07,06,00,02,15.60
2017,07,06,00,03,15.60
2017,07,06,00,04,15.60
2017,07,06,00,05,15.50
2017,07,06,00,06,15.50
2017,07,06,00,07,15.50
2017,07,06,00,08,15.40
2017,07,06,00,09,15.40
2017,07,06,00,10,15.40
2017,07,06,00,11,15.40
2017,07,06,00,12,15.30
2017,07,06,00,13,15.30
2017,07,06,00,14,15.30
2017,07,06,00,15,15.30
2017,07,06,00,16,15.20
2017,07,06,00,17,15.20
2017,07,06,00,18,15.20
2017,07,06,00,19,15.20
2017,07,06,00,20,15.20
2017,07,06,00,21,15.20
2017,07,06,00,22,15.10
2017,07,06,00,23,15.10
2017,07,06,00,24,15.10
2017,07,06,00,25,15.10
2017,07,06,00,26,15.10
2017,07,06,00,27,15.00
2017,07,06,00,28,15.00
2017,07,06,00,29,15.00
2017,07,06,00,30,14.90
2017,07,06,00,31,14.90
2017,07,06,00,32,14.90
2017,07,06,00,33,14.90
2017,07,06,00,34,14.90
2017,07,06,00,35,14.90
2017,07,06,00,36,14.90
2017,07,06,00,37,14.80
2017,07,06,00,38,14.80
2017,07,06,00,39,14.80
2017,07,06,00,40,14.80
2017,07,06,00,41,14.80
2017,07,06,00,42,14.80
2017,07,06,00,43,14.80
2017,07,06,00,44,14.80
2017,07,06,00,45,14.80
2017,07,06,00,46,14.80
2017,07,06,00,47,14.80
2017,07,06,00,48,14.80
2017,07,06,00,49,14.80
2017,07,06,00,50,14.80
2017,07,06,00,51,14.80
2017,07,06,00,52,14.80
2017,07,06,00,53,14.70
2017,07,06,00,54,14.70
2017,07,06,00,55,14.70
2017,07,06,00,56,14.70
2017,07,06,00,57,14.70
2017,07,06,00,58,14.70
2017,07,06,00,59,14.70
2017,07,06,01,00,14.70
2017,07,06,01,01,14.70
2017,07,06,01,02,14.70
2017,07,06,01,03,14.70
2017,07,06,01,04,14.70
2017,07,06,01,05,14.60
2017,07,06,01,06,14.60
2017,07,06,01,07,14.60
2017,07,06,01,08,14.60
2017,07,06,01,09,14.60
2017,07,06,01,10,14.60
2017,07,06,01,11,14.60
2017,07,06,01,12,14.60
2017,07,06,01,13,14.60
2017,07,06,01,14,14.60
2017,07,06,01,15,14.50
2017,07,06,01,16,14.50
2017,07,06,01,17,14.50
2017,07,06,01,18,14.50
2017,07,06,01,19,14.50
2017,07,06,01,20,14.50
2017,07,06,01,21,14.50
2017,07,06,01,22,14.50
2017,07,06,01,23,14.50
2017,07,06,01,24,14.40
2017,07,06,01,25,14.40
2017,07,06,01,26,14.40
2017,07,06,01,27,14.40
2017,07,06,01,28,14.40
2017,07,06,01,29,14.40
2017,07,06,01,30,14.40
2017,07,06,01,31,14.40
2017,07,06,01,32,14.40
2017,07,06,01,33,14.30
2017,07,06,01,34,14.30
2017,07,06,01,35,14.30
2017,07,06,01,36,14.30
2017,07,06,01,37,14.30
2017,07,06,01,38,14.30
2017,07,06,01,39,14.30
2017,07,06,01,40,14.30
2017,07,06,01,41,14.30
2017,07,06,01,42,14.30
2017,07,06,01,43,14.30
2017,07,06,01,44,14.30
2017,07,06,01,45,14.30
2017,07,06,01,46,14.20
2017,07,06,01,47,14.20
2017,07,06,01,48,14.20
2017,07,06,01,49,14.20
2017,07,06,01,50,14.20
2017,07,06,01,51,14.20
2017,07,06,01,52,14.20
2017,07,06,01,53,14.20
2017,07,06,01,54,14.20
2017,07,06,01,55,14.20
2017,07,06,01,56,14.10
2017,07,06,01,57,14.10
2017,07,06,01,58,14.10
2017,07,06,01,59,14.10
2017,07,06,02,00,14.10
2017,07,06,02,01,14.10
2017,07,06,02,02,14.10
2017,07,06,02,03,14.10
2017,07,06,02,04,14.10
2017,07,06,02,05,14.10
2017,07,06,02,06,14.00
2017,07,06,02,07,14.00
2017,07,06,02,08,14.00
2017,07,06,02,09,14.00
2017,07,06,02,10,14.00
2017,07,06,02,11,14.00
2017,07,06,02,12,14.00
2017,07,06,02,13,14.00
2017,07,06,02,14,14.00
2017,07,06,02,15,13.90
2017,07,06,02,16,13.90
2017,07,06,02,17,13.90
2017,07,06,02,18,13.90
2017,07,06,02,19,13.90
2017,07,06,02,20,13.90
2017,07,06,02,21,13.90
2017,07,06,02,22,13.90
2017,07,06,02,23,13.90
2017,07,06,02,24,13.90
2017,07,06,02,25,13.90
2017,07,06,02,26,13.90
2017,07,06,02,27,13.90
2017,07,06,02,28,13.80
2017,07,06,02,29,13.80
2017,07,06,02,30,13.80
2017,07,06,02,31,13.80
2017,07,06,02,32,13.80
2017,07,06,02,33,13.80
2017,07,06,02,34,13.80
2017,07,06,02,35,13.80
2017,07,06,02,36,13.80
2017,07,06,02,37,13.80
2017,07,06,02,38,13.70
2017,07,06,02,39,13.70
2017,07,06,02,40,13.70
2017,07,06,02,41,13.70
2017,07,06,02,42,13.70
2017,07,06,02,43,13.70
2017,07,06,02,44,13.60
2017,07,06,02,45,13.60
2017,07,06,02,46,13.60
2017,07,06,02,47,13.60
2017,07,06,02,48,13.60
2017,07,06,02,49,13.60
2017,07,06,02,50,13.50
2017,07,06,02,51,13.50
2017,07,06,02,52,13.50
2017,07,06,02,53,13.50
2017,07,06,02,54,13.40
2017,07,06,02,55,13.40
2017,07,06,02,56,13.40
2017,07,06,02,57,13.40
2017,07,06,02,58,13.30
2017,07,06,02,59,13.30
2017,07,06,03,00,13.30
2017,07,06,03,01,13.30
2017,07,06,03,02,13.30
2017,07,06,03,03,13.20
2017,07,06,03,04,13.20
2017,07,06,03,05,13.20
2017,07,06,03,06,13.20
2017,07,06,03,07,13.20
2017,07,06,03,08,13.10
2017,07,06,03,09,13.10
2017,07,06,03,10,13.10
2017,07,06,03,11,13.10
2017,07,06,03,12,13.10
2017,07,06,03,13,13.00
2017,07,06,03,14,13.00
2017,07,06,03,15,13.00
2017,07,06,03,16,13.00
2017,07,06,03,17,12.90
2017,07,06,03,18,12.90
2017,07,06,03,19,12.90
2017,07,06,03,20,12.90
2017,07,06,03,21,12.90
2017,07,06,03,22,12.80
2017,07,06,03,23,12.80
2017,07,06,03,24,12.80
2017,07,06,03,25,12.80
2017,07,06,03,26,12.80
2017,07,06,03,27,12.70
2017,07,06,03,28,12.70
2017,07,06,03,29,12.70
2017,07,06,03,30,12.70
2017,07,06,03,31,12.70
2017,07,06,03,32,12.60
2017,07,06,03,33,12.60
2017,07,06,03,34,12.60
2017,07,06,03,35,12.60
2017,07,06,03,36,12.60
2017,07,06,03,37,12.60
2017,07,06,03,38,12.60
2017,07,06,03,39,12.50
2017,07,06,03,40,12.50
2017,07,06,03,41,12.50
2017,07,06,03,42,12.50
2017,07,06,03,43,12.50
2017,07,06,03,44,12.40
2017,07,06,03,45,12.40
2017,07,06,03,46,12.40
2017,07,06,03,47,12.40
2017,07,06,03,48,12.40
2017,07,06,03,49,12.40
2017,07,06,03,50,12.40
2017,07,06,03,51,12.40
2017,07,06,03,52,12.40
2017,07,06,03,53,12.40
2017,07,06,03,54,12.40
2017,07,06,03,55,12.30
2017,07,06,03,56,12.30
2017,07,06,03,57,12.30
2017,07,06,03,58,12.30
2017,07,06,03,59,12.30
2017,07,06,04,00,12.30
2017,07,06,04,01,12.30
2017,07,06,04,02,12.30
2017,07,06,04,03,12.30
2017,07,06,04,04,12.30
2017,07,06,04,05,12.30
2017,07,06,04,06,12.30
2017,07,06,04,07,12.20
2017,07,06,04,08,12.20
2017,07,06,04,09,12.20
2017,07,06,04,10,12.20
2017,07,06,04,11,12.20
2017,07,06,04,12,12.20
2017,07,06,04,13,12.20
2017,07,06,04,14,12.20
2017,07,06,04,15,12.20
2017,07,06,04,16,12.10
2017,07,06,04,17,12.10
2017,07,06,04,18,12.10
2017,07,06,04,19,12.10
2017,07,06,04,20,12.10
2017,07,06,04,21,12.10
2017,07,06,04,22,12.10
2017,07,06,04,23,12.10
2017,07,06,04,24,12.10
2017,07,06,04,25,12.10
2017,07,06,04,26,12.10
2017,07,06,04,27,12.10
2017,07,06,04,28,12.10
2017,07,06,04,29,12.00
2017,07,06,04,30,12.00
2017,07,06,04,31,12.00
2017,07,06,04,32,12.00
2017,07,06,04,33,12.00
2017,07,06,04,34,12.00
2017,07,06,04,35,12.00
2017,07,06,04,36,12.00
2017,07,06,04,37,11.90
2017,07,06,04,38,11.90
2017,07,06,04,39,11.90
2017,07,06,04,40,11.90
2017,07,06,04,41,11.90
2017,07,06,04,42,11.90
2017,07,06,04,43,11.90
2017,07,06,04,44,11.90
2017,07,06,04,45,11.90
2017,07,06,04,46,11.90
2017,07,06,04,47,11.80
2017,07,06,04,48,11.80
2017,07,06,04,49,11.80
2017,07,06,04,50,11.80
2017,07,06,04,51,11.80
2017,07,06,04,52,11.80
2017,07,06,04,53,11.80
2017,07,06,04,54,11.80
2017,07,06,04,55,11.80
2017,07,06,04,56,11.80
2017,07,06,04,57,11.70
2017,07,06,04,58,11.70
2017,07,06,04,59,11.70
2017,07,06,05,00,11.70
2017,07,06,05,01,11.70
2017,07,06,05,02,11.70
2017,07,06,05,03,11.70
2017,07,06,05,04,11.70
2017,07,06,05,05,11.70
2017,07,06,05,06,11.70
2017,07,06,05,07,11.70
2017,07,06,05,08,11.70
2017,07,06,05,09,11.70
2017,07,06,05,10,11.60
2017,07,06,05,11,11.60
2017,07,06,05,12,11.60
2017,07,06,05,13,11.60
2017,07,06,05,14,11.60
2017,07,06,05,15,11.60
2017,07,06,05,16,11.60
2017,07,06,05,17,11.60
2017,07,06,05,18,11.60
2017,07,06,05,19,11.60
2017,07,06,05,20,11.60
2017,07,06,05,21,11.60
2017,07,06,05,22,11.60
2017,07,06,05,23,11.60
2017,07,06,05,24,11.60
2017,07,06,05,25,11.60
2017,07,06,05,26,11.60
2017,07,06,05,27,11.60
2017,07,06,05,28,11.60
2017,07,06,05,29,11.60
2017,07,06,05,30,11.60
2017,07,06,05,31,11.60
2017,07,06,05,32,11.50
2017,07,06,05,33,11.50
2017,07,06,05,34,11.50
2017,07,06,05,35,11.50
2017,07,06,05,36,11.50
2017,07,06,05,37,11.50
2017,07,06,05,38,11.50
2017,07,06,05,39,11.50
2017,07,06,05,40,11.50
2017,07,06,05,41,11.50
2017,07,06,05,42,11.50
2017,07,06,05,43,11.50
2017,07,06,05,44,11.50
2017,07,06,05,45,11.50
2017,07,06,05,46,11.50
2017,07,06,05,47,11.50
2017,07,06,05,48,11.40
2017,07,06,05,49,11.40
2017,07,06,05,50,11.50
2017,07,06,05,51,11.40
2017,07,06,05,52,11.40
2017,07,06,05,53,11.50
2017,07,06,05,54,11.40
2017,07,06,05,55,11.40
2017,07,06,05,56,11.40
2017,07,06,05,57,11.40
2017,07,06,05,58,11.50
2017,07,06,05,59,11.50
2017,07,06,06,00,11.50
2017,07,06,06,01,11.50
2017,07,06,06,02,11.50
2017,07,06,06,03,11.50
2017,07,06,06,04,11.50
2017,07,06,06,05,11.50
2017,07,06,06,06,11.50
2017,07,06,06,07,11.50
2017,07,06,06,08,11.60
2017,07,06,06,09,11.60
2017,07,06,06,10,11.60
2017,07,06,06,11,11.60
2017,07,06,06,12,11.60
2017,07,06,06,13,11.60
2017,07,06,06,14,11.70
2017,07,06,06,15,11.70
2017,07,06,06,16,11.70
2017,07,06,06,17,11.70
2017,07,06,06,18,11.80
2017,07,06,06,19,11.80
2017,07,06,06,20,11.80
2017,07,06,06,21,11.80
2017,07,06,06,22,11.80
2017,07,06,06,23,11.90
2017,07,06,06,24,11.90
2017,07,06,06,25,11.90
2017,07,06,06,26,11.90
2017,07,06,06,27,12.00
2017,07,06,06,28,12.00
2017,07,06,06,29,12.10
2017,07,06,06,30,12.10
2017,07,06,06,31,12.10
2017,07,06,06,32,12.20
2017,07,06,06,33,12.20
2017,07,06,06,34,12.20
2017,07,06,06,35,12.30
2017,07,06,06,36,12.40
2017,07,06,06,37,12.50
2017,07,06,06,38,12.60
2017,07,06,06,39,12.80
2017,07,06,06,40,12.90
2017,07,06,06,41,13.00
2017,07,06,06,42,13.10
2017,07,06,06,43,13.20
2017,07,06,06,44,13.20
2017,07,06,06,45,13.30
2017,07,06,06,46,13.30
2017,07,06,06,47,13.30
2017,07,06,06,48,13.40
2017,07,06,06,49,13.50
2017,07,06,06,50,13.60
2017,07,06,06,51,13.70
2017,07,06,06,52,13.70
2017,07,06,06,53,13.80
2017,07,06,06,54,13.90
2017,07,06,06,55,14.10
2017,07,06,06,56,14.20
2017,07,06,06,57,14.30
2017,07,06,06,58,14.40
2017,07,06,06,59,14.50
2017,07,06,07,00,14.50
2017,07,06,07,01,14.60
2017,07,06,07,02,14.70
2017,07,06,07,03,14.70
2017,07,06,07,04,14.80
2017,07,06,07,05,14.80
2017,07,06,07,06,14.80
2017,07,06,07,07,14.90
2017,07,06,07,08,14.90
2017,07,06,07,09,14.90
2017,07,06,07,10,15.00
2017,07,06,07,11,15.10
2017,07,06,07,12,15.10
2017,07,06,07,13,15.10
2017,07,06,07,14,15.20
2017,07,06,07,15,15.20
2017,07,06,07,16,15.30
2017,07,06,07,17,15.30
2017,07,06,07,18,15.40
2017,07,06,07,19,15.40
2017,07,06,07,20,15.50
2017,07,06,07,21,15.60
2017,07,06,07,22,15.60
2017,07,06,07,23,15.70
2017,07,06,07,24,15.70
2017,07,06,07,25,15.80
2017,07,06,07,26,15.80
2017,07,06,07,27,15.80
2017,07,06,07,28,15.80
2017,07,06,07,29,15.80
2017,07,06,07,30,15.90
2017,07,06,07,31,15.90
2017,07,06,07,32,16.00
2017,07,06,07,33,16.00
2017,07,06,07,34,16.10
2017,07,06,07,35,16.20
2017,07,06,07,36,16.20
2017,07,06,07,37,16.30
2017,07,06,07,38,16.40
2017,07,06,07,39,16.50
2017,07,06,07,40,16.60
2017,07,06,07,41,16.70
2017,07,06,07,42,16.70
2017,07,06,07,43,16.80
2017,07,06,07,44,16.90
2017,07,06,07,45,17.00
2017,07,06,07,46,17.00
2017,07,06,07,47,17.00
2017,07,06,07,48,17.10
2017,07,06,07,49,17.10
2017,07,06,07,50,17.20
2017,07,06,07,51,17.20
2017,07,06,07,52,17.20
2017,07,06,07,53,17.30
2017,07,06,07,54,17.30
2017,07,06,07,55,17.30
2017,07,06,07,56,17.30
2017,07,06,07,57,17.30
2017,07,06,07,58,17.40
2017,07,06,07,59,17.40
2017,07,06,08,00,17.40
2017,07,06,08,01,17.50
2017,07,06,08,02,17.50
2017,07,06,08,03,17.60
2017,07,06,08,04,17.60
2017,07,06,08,05,17.70
2017,07,06,08,06,17.70
2017,07,06,08,07,17.70
2017,07,06,08,08,17.70
2017,07,06,08,09,17.80
2017,07,06,08,10,17.80
2017,07,06,08,11,17.90
2017,07,06,08,12,17.90
2017,07,06,08,13,17.90
2017,07,06,08,14,18.00
2017,07,06,08,15,18.10
2017,07,06,08,16,18.10
2017,07,06,08,17,18.10
2017,07,06,08,18,18.10
2017,07,06,08,19,18.10
2017,07,06,08,20,18.10
2017,07,06,08,21,18.20
2017,07,06,08,22,18.20
2017,07,06,08,23,18.30
2017,07,06,08,24,18.30
2017,07,06,08,25,18.40
2017,07,06,08,26,18.50
2017,07,06,08,27,18.50
2017,07,06,08,28,18.60
2017,07,06,08,29,18.70
2017,07,06,08,30,18.80
2017,07,06,08,31,18.80
2017,07,06,08,32,18.90
2017,07,06,08,33,18.90
2017,07,06,08,34,18.90
2017,07,06,08,35,18.90
2017,07,06,08,36,18.80
2017,07,06,08,37,18.80
2017,07,06,08,38,18.90
2017,07,06,08,39,18.90
2017,07,06,08,40,19.00
2017,07,06,08,41,19.00
2017,07,06,08,42,19.10
2017,07,06,08,43,19.20
2017,07,06,08,44,19.30
2017,07,06,08,45,19.30
2017,07,06,08,46,19.40
2017,07,06,08,47,19.40
2017,07,06,08,48,19.40
2017,07,06,08,49,19.40
2017,07,06,08,50,19.40
2017,07,06,08,51,19.40
2017,07,06,08,52,19.50
2017,07,06,08,53,19.50
2017,07,06,08,54,19.60
2017,07,06,08,55,19.60
2017,07,06,08,56,19.70
2017,07,06,08,57,19.80
2017,07,06,08,58,19.90
2017,07,06,08,59,20.00
2017,07,06,09,00,20.10
2017,07,06,09,01,20.10
2017,07,06,09,02,20.10
2017,07,06,09,03,20.10
2017,07,06,09,04,20.20
2017,07,06,09,05,20.20
2017,07,06,09,06,20.20
2017,07,06,09,07,20.20
2017,07,06,09,08,20.30
2017,07,06,09,09,20.30
2017,07,06,09,10,20.30
2017,07,06,09,11,20.30
2017,07,06,09,12,20.40
2017,07,06,09,13,20.40
2017,07,06,09,14,20.50
2017,07,06,09,15,20.60
2017,07,06,09,16,20.60
2017,07,06,09,17,20.70
2017,07,06,09,18,20.80
2017,07,06,09,19,20.80
2017,07,06,09,20,20.80
2017,07,06,09,21,20.80
2017,07,06,09,22,20.90
2017,07,06,09,23,20.80
2017,07,06,09,24,20.80
2017,07,06,09,25,20.70
2017,07,06,09,26,20.70
2017,07,06,09,27,20.70
2017,07,06,09,28,20.70
2017,07,06,09,29,20.70
2017,07,06,09,30,20.70
2017,07,06,09,31,20.80
2017,07,06,09,32,20.80
2017,07,06,09,33,20.80
2017,07,06,09,34,20.80
2017,07,06,09,35,20.80
2017,07,06,09,36,20.80
2017,07,06,09,37,20.90
2017,07,06,09,38,21.00
2017,07,06,09,39,21.00
2017,07,06,09,40,21.10
2017,07,06,09,41,21.10
2017,07,06,09,42,21.10
2017,07,06,09,43,21.10
2017,07,06,09,44,21.10
2017,07,06,09,45,21.10
2017,07,06,09,46,21.10
2017,07,06,09,47,21.10
2017,07,06,09,48,21.10
2017,07,06,09,49,21.10
2017,07,06,09,50,21.10
2017,07,06,09,51,21.20
2017,07,06,09,52,21.20
2017,07,06,09,53,21.20
2017,07,06,09,54,21.20
2017,07,06,09,55,21.10
2017,07,06,09,56,21.10
2017,07,06,09,57,21.10
2017,07,06,09,58,21.00
2017,07,06,09,59,21.00
2017,07,06,10,00,20.90
2017,07,06,10,01,20.90
2017,07,06,10,02,20.90
2017,07,06,10,03,20.90
2017,07,06,10,04,20.90
2017,07,06,10,05,21.00
2017,07,06,10,06,21.10
2017,07,06,10,07,21.20
2017,07,06,10,08,21.20
2017,07,06,10,09,21.30
2017,07,06,10,10,21.40
2017,07,06,10,11,21.40
2017,07,06,10,12,21.40
2017,07,06,10,13,21.40
2017,07,06,10,14,21.30
2017,07,06,10,15,21.30
2017,07,06,10,16,21.30
2017,07,06,10,17,21.30
2017,07,06,10,18,21.20
2017,07,06,10,19,21.10
2017,07,06,10,20,21.10
2017,07,06,10,21,21.00
2017,07,06,10,22,20.90
2017,07,06,10,23,20.80
2017,07,06,10,24,20.80
2017,07,06,10,25,20.80
2017,07,06,10,26,20.80
2017,07,06,10,27,20.80
2017,07,06,10,28,20.80
2017,07,06,10,29,20.80
2017,07,06,10,30,20.80
2017,07,06,10,31,20.70
2017,07,06,10,32,20.70
2017,07,06,10,33,20.70
2017,07,06,10,34,20.70
2017,07,06,10,35,20.60
2017,07,06,10,36,20.60
2017,07,06,10,37,20.60
2017,07,06,10,38,20.60
2017,07,06,10,39,20.60
2017,07,06,10,40,20.60
2017,07,06,10,41,20.60
2017,07,06,10,42,20.60
2017,07,06,10,43,20.70
2017,07,06,10,44,20.70
2017,07,06,10,45,20.70
2017,07,06,10,46,20.80
2017,07,06,10,47,20.80
2017,07,06,10,48,20.90
2017,07,06,10,49,20.90
2017,07,06,10,50,20.90
2017,07,06,10,51,21.00
2017,07,06,10,52,21.10
2017,07,06,10,53,21.10
2017,07,06,10,54,21.20
2017,07,06,10,55,21.20
2017,07,06,10,56,21.30
2017,07,06,10,57,21.30
2017,07,06,10,58,21.30
2017,07,06,10,59,21.30
2017,07,06,11,00,21.30
2017,07,06,11,01,21.40
2017,07,06,11,02,21.50
2017,07,06,11,03,21.60
2017,07,06,11,04,21.60
2017,07,06,11,05,21.70
2017,07,06,11,06,21.80
2017,07,06,11,07,21.80
2017,07,06,11,08,21.90
2017,07,06,11,09,21.90
2017,07,06,11,10,21.90
2017,07,06,11,11,21.90
2017,07,06,11,12,22.00
2017,07,06,11,13,22.00
2017,07,06,11,14,22.00
2017,07,06,11,15,22.00
2017,07,06,11,16,22.00
2017,07,06,11,17,21.90
2017,07,06,11,18,22.00
2017,07,06,11,19,22.00
2017,07,06,11,20,22.10
2017,07,06,11,21,22.20
2017,07,06,11,22,22.30
2017,07,06,11,23,22.30
2017,07,06,11,24,22.40
2017,07,06,11,25,22.60
2017,07,06,11,26,22.70
2017,07,06,11,27,22.90
2017,07,06,11,28,23.00
2017,07,06,11,29,23.00
2017,07,06,11,30,23.00
2017,07,06,11,31,23.00
2017,07,06,11,32,23.00
2017,07,06,11,33,23.00
2017,07,06,11,34,23.00
2017,07,06,11,35,22.90
2017,07,06,11,36,22.90
2017,07,06,11,37,22.90
2017,07,06,11,38,22.80
2017,07,06,11,39,22.80
2017,07,06,11,40,22.90
2017,07,06,11,41,22.90
2017,07,06,11,42,22.90
2017,07,06,11,43,22.80
2017,07,06,11,44,22.80
2017,07,06,11,45,22.80
2017,07,06,11,46,22.90
2017,07,06,11,47,22.90
2017,07,06,11,48,22.90
2017,07,06,11,49,23.00
2017,07,06,11,50,23.10
2017,07,06,11,51,23.10
2017,07,06,11,52,23.20
2017,07,06,11,53,23.20
2017,07,06,11,54,23.30
2017,07,06,11,55,23.40
2017,07,06,11,56,23.40
2017,07,06,11,57,23.40
2017,07,06,11,58,23.40
2017,07,06,11,59,23.40
2017,07,06,12,00,23.30
2017,07,06,12,01,23.40
2017,07,06,12,02,23.50
2017,07,06,12,03,23.50
2017,07,06,12,04,23.40
2017,07,06,12,05,23.30
2017,07,06,12,06,23.30
2017,07,06,12,07,23.30
2017,07,06,12,08,23.40
2017,07,06,12,09,23.50
2017,07,06,12,10,23.60
2017,07,06,12,11,23.70
2017,07,06,12,12,23.80
2017,07,06,12,13,23.90
2017,07,06,12,14,23.90
2017,07,06,12,15,23.90
2017,07,06,12,16,23.90
2017,07,06,12,17,23.80
2017,07,06,12,18,23.80
2017,07,06,12,19,23.70
2017,07,06,12,20,23.80
2017,07,06,12,21,23.80
2017,07,06,12,22,24.00
2017,07,06,12,23,24.10
2017,07,06,12,24,24.30
2017,07,06,12,25,24.40
2017,07,06,12,26,24.60
2017,07,06,12,27,24.60
2017,07,06,12,28,24.60
2017,07,06,12,29,24.50
2017,07,06,12,30,24.30
2017,07,06,12,31,24.20
2017,07,06,12,32,24.00
2017,07,06,12,33,23.90
2017,07,06,12,34,23.80
2017,07,06,12,35,23.80
2017,07,06,12,36,23.80
2017,07,06,12,37,23.80
2017,07,06,12,38,23.90
2017,07,06,12,39,24.00
2017,07,06,12,40,24.00
2017,07,06,12,41,24.10
2017,07,06,12,42,24.10
2017,07,06,12,43,24.20
2017,07,06,12,44,24.20
2017,07,06,12,45,24.10
2017,07,06,12,46,24.10
2017,07,06,12,47,24.10
2017,07,06,12,48,24.00
2017,07,06,12,49,24.00
2017,07,06,12,50,23.90
2017,07,06,12,51,23.90
2017,07,06,12,52,24.00
2017,07,06,12,53,24.00
2017,07,06,12,54,24.10
2017,07,06,12,55,24.20
2017,07,06,12,56,24.20
2017,07,06,12,57,24.10
2017,07,06,12,58,24.00
2017,07,06,12,59,24.00
2017,07,06,13,00,23.90
2017,07,06,13,01,24.00
2017,07,06,13,02,24.00
2017,07,06,13,03,24.00
2017,07,06,13,04,24.10
2017,07,06,13,05,24.10
2017,07,06,13,06,24.20
2017,07,06,13,07,24.20
2017,07,06,13,08,24.30
2017,07,06,13,09,24.30
2017,07,06,13,10,24.40
2017,07,06,13,11,24.40
2017,07,06,13,12,24.40
2017,07,06,13,13,24.50
2017,07,06,13,14,24.40
2017,07,06,13,15,24.40
2017,07,06,13,16,24.50
2017,07,06,13,17,24.50
2017,07,06,13,18,24.40
2017,07,06,13,19,24.40
2017,07,06,13,20,24.50
2017,07,06,13,21,24.60
2017,07,06,13,22,24.60
2017,07,06,13,23,24.70
2017,07,06,13,24,24.70
2017,07,06,13,25,24.80
2017,07,06,13,26,25.00
2017,07,06,13,27,25.30
2017,07,06,13,28,25.50
2017,07,06,13,29,25.60
2017,07,06,13,30,25.60
2017,07,06,13,31,25.60
2017,07,06,13,32,25.50
2017,07,06,13,33,25.40
2017,07,06,13,34,25.30
2017,07,06,13,35,25.30
2017,07,06,13,36,25.30
2017,07,06,13,37,25.40
2017,07,06,13,38,25.50
2017,07,06,13,39,25.60
2017,07,06,13,40,25.60
2017,07,06,13,41,25.50
2017,07,06,13,42,25.40
2017,07,06,13,43,25.30
2017,07,06,13,44,25.30
2017,07,06,13,45,25.30
2017,07,06,13,46,25.20
2017,07,06,13,47,25.10
2017,07,06,13,48,25.00
2017,07,06,13,49,24.90
2017,07,06,13,50,24.80
2017,07,06,13,51,24.70
2017,07,06,13,52,24.70
2017,07,06,13,53,24.70
2017,07,06,13,54,24.70
2017,07,06,13,55,24.60
2017,07,06,13,56,24.60
2017,07,06,13,57,24.60
2017,07,06,13,58,24.60
2017,07,06,13,59,24.50
2017,07,06,14,00,24.60
2017,07,06,14,01,24.60
2017,07,06,14,02,24.60
2017,07,06,14,03,24.70
2017,07,06,14,04,24.70
2017,07,06,14,05,24.80
2017,07,06,14,06,24.90
2017,07,06,14,07,25.00
2017,07,06,14,08,25.10
2017,07,06,14,09,25.10
2017,07,06,14,10,25.10
2017,07,06,14,11,25.10
2017,07,06,14,12,25.10
2017,07,06,14,13,25.20
2017,07,06,14,14,25.30
2017,07,06,14,15,25.50
2017,07,06,14,16,25.60
2017,07,06,14,17,25.70
2017,07,06,14,18,25.80
2017,07,06,14,19,25.80
2017,07,06,14,20,25.80
2017,07,06,14,21,25.70
2017,07,06,14,22,25.70
2017,07,06,14,23,25.70
2017,07,06,14,24,25.70
2017,07,06,14,25,25.80
2017,07,06,14,26,25.90
2017,07,06,14,27,26.00
2017,07,06,14,28,26.00
2017,07,06,14,29,26.10
2017,07,06,14,30,26.10
2017,07,06,14,31,26.00
2017,07,06,14,32,26.00
2017,07,06,14,33,26.00
2017,07,06,14,34,26.10
2017,07,06,14,35,26.10
2017,07,06,14,36,26.20
2017,07,06,14,37,26.30
2017,07,06,14,38,26.30
2017,07,06,14,39,26.30
2017,07,06,14,40,26.30
2017,07,06,14,41,26.30
2017,07,06,14,42,26.30
2017,07,06,14,43,26.20
2017,07,06,14,44,26.30
2017,07,06,14,45,26.30
2017,07,06,14,46,26.30
2017,07,06,14,47,26.30
2017,07,06,14,48,26.30
2017,07,06,14,49,26.30
2017,07,06,14,50,26.30
2017,07,06,14,51,26.30
2017,07,06,14,52,26.20
2017,07,06,14,53,26.20
2017,07,06,14,54,26.20
2017,07,06,14,55,26.30
2017,07,06,14,56,26.30
2017,07,06,14,57,26.30
2017,07,06,14,58,26.30
2017,07,06,14,59,26.30
2017,07,06,15,00,26.30
2017,07,06,15,01,26.30
2017,07,06,15,02,26.20
2017,07,06,15,03,26.20
2017,07,06,15,04,26.10
2017,07,06,15,05,26.10
2017,07,06,15,06,26.20
2017,07,06,15,07,26.20
2017,07,06,15,08,26.30
2017,07,06,15,09,26.30
2017,07,06,15,10,26.30
2017,07,06,15,11,26.40
2017,07,06,15,12,26.50
2017,07,06,15,13,26.60
2017,07,06,15,14,26.70
2017,07,06,15,15,26.80
2017,07,06,15,16,26.80
2017,07,06,15,17,26.80
2017,07,06,15,18,26.70
2017,07,06,15,19,26.70
2017,07,06,15,20,26.70
2017,07,06,15,21,26.70
2017,07,06,15,22,26.70
2017,07,06,15,23,26.60
2017,07,06,15,24,26.70
2017,07,06,15,25,26.60
2017,07,06,15,26,26.50
2017,07,06,15,27,26.50
2017,07,06,15,28,26.50
2017,07,06,15,29,26.60
2017,07,06,15,30,26.60
2017,07,06,15,31,26.50
2017,07,06,15,32,26.50
2017,07,06,15,33,26.50
2017,07,06,15,34,26.50
2017,07,06,15,35,26.60
2017,07,06,15,36,26.60
2017,07,06,15,37,26.60
2017,07,06,15,38,26.60
2017,07,06,15,39,26.60
2017,07,06,15,40,26.60
2017,07,06,15,41,26.60
2017,07,06,15,42,26.60
2017,07,06,15,43,26.60
2017,07,06,15,44,26.60
2017,07,06,15,45,26.60
2017,07,06,15,46,26.50
2017,07,06,15,47,26.50
2017,07,06,15,48,26.50
2017,07,06,15,49,26.30
2017,07,06,15,50,26.30
2017,07,06,15,51,26.20
2017,07,06,15,52,26.30
2017,07,06,15,53,26.30
2017,07,06,15,54,26.30
2017,07,06,15,55,26.30
2017,07,06,15,56,26.30
2017,07,06,15,57,26.30
2017,07,06,15,58,26.30
2017,07,06,15,59,26.30
2017,07,06,16,00,26.30
2017,07,06,16,01,26.30
2017,07,06,16,02,26.30
2017,07,06,16,03,26.30
2017,07,06,16,04,26.30
2017,07,06,16,05,26.20
2017,07,06,16,06,26.20
2017,07,06,16,07,26.20
2017,07,06,16,08,26.30
2017,07,06,16,09,26.30
2017,07,06,16,10,26.40
2017,07,06,16,11,26.40
2017,07,06,16,12,26.30
2017,07,06,16,13,26.30
2017,07,06,16,14,26.30
2017,07,06,16,15,26.20
2017,07,06,16,16,26.20
2017,07,06,16,17,26.20
2017,07,06,16,18,26.20
2017,07,06,16,19,26.30
2017,07,06,16,20,26.30
2017,07,06,16,21,26.40
2017,07,06,16,22,26.50
2017,07,06,16,23,26.50
2017,07,06,16,24,26.60
2017,07,06,16,25,26.70
2017,07,06,16,26,26.70
2017,07,06,16,27,26.70
2017,07,06,16,28,26.70
2017,07,06,16,29,26.70
2017,07,06,16,30,26.80
2017,07,06,16,31,26.80
2017,07,06,16,32,26.70
2017,07,06,16,33,26.70
2017,07,06,16,34,26.70
2017,07,06,16,35,26.60
2017,07,06,16,36,26.60
2017,07,06,16,37,26.70
2017,07,06,16,38,26.80
2017,07,06,16,39,26.80
2017,07,06,16,40,26.90
2017,07,06,16,41,26.90
2017,07,06,16,42,26.90
2017,07,06,16,43,27.00
2017,07,06,16,44,27.10
2017,07,06,16,45,27.10
2017,07,06,16,46,27.10
2017,07,06,16,47,27.20
2017,07,06,16,48,27.10
2017,07,06,16,49,27.10
2017,07,06,16,50,27.10
2017,07,06,16,51,27.10
2017,07,06,16,52,27.10
2017,07,06,16,53,27.10
2017,07,06,16,54,27.10
2017,07,06,16,55,27.20
2017,07,06,16,56,27.30
2017,07,06,16,57,27.30
2017,07,06,16,58,27.30
2017,07,06,16,59,27.30
2017,07,06,17,00,27.20
2017,07,06,17,01,27.20
2017,07,06,17,02,27.20
2017,07,06,17,03,27.20
2017,07,06,17,04,27.20
2017,07,06,17,05,27.10
2017,07,06,17,06,27.10
2017,07,06,17,07,27.10
2017,07,06,17,08,27.10
2017,07,06,17,09,27.10
2017,07,06,17,10,27.20
2017,07,06,17,11,27.20
2017,07,06,17,12,27.20
2017,07,06,17,13,27.20
2017,07,06,17,14,27.10
2017,07,06,17,15,27.10
2017,07,06,17,16,27.10
2017,07,06,17,17,27.00
2017,07,06,17,18,26.90
2017,07,06,17,19,26.90